Weather History for K1M4 - October, 2012

Change the Weather History Date:

Saturday, October 27, 2012

  Actual Average (KJFX) Record (KJFX)
Temperature  
Mean Temperature 44 °F -  
Max Temperature 48 °F 71 °F 87 °F (2014)
Min Temperature 41 °F 42 °F 22 °F (1961)
Degree Days  
Heating Degree Days 20    
Moisture  
Dew Point 42 °F    
Average Humidity 86    
Maximum Humidity 100    
Minimum Humidity 69    
Precipitation  
Precipitation 0.02 in - - ()
Sea Level Pressure  
Sea Level Pressure 30.07 in    
Wind  
Wind Speed 10 mph (North)    
Max Wind Speed 14 mph    
Max Gust Speed 21 mph    
Visibility 9 miles    
Events Rain    
Averages and records for this station are not official NWS values.
T = Trace of Precipitation, MM = Missing Value Source: NWS Daily Summary

Daily Weather History Graph

Daily Weather History Graph

Search for Another Location

Airport or City:

Trip Planner

Search our weather history database for the weather conditions in past years. The results will help you decide how hot, cold, wet, or windy it might be!

Date:

Astronomy

Oct. 27, 2012 Rise Set
Actual Time 7:06 AM CDT 6:01 PM CDT
Civil Twilight 6:40 AM CDT 6:27 PM CDT
Nautical Twilight 6:11 AM CDT 6:56 PM CDT
Astronomical Twilight 5:41 AM CDT 7:26 PM CDT
Moon 4:44 PM CDT (10/27) 5:04 AM CDT (10/27)
Length of Visible Light 11h 46m
Length of Day
10h 55m
Waxing Gibbous, 96% of the Moon is Illuminated
Oct 27
Waxing Gibbous
Oct 29
Full
Nov 6
Last Quarter
Nov 13
New
Nov 20
First Quarter

Hourly Weather History & Observations

Time (CDT) Temp. Windchill Dew Point Humidity Pressure Visibility Wind Dir Wind Speed Gust Speed Precip Events Conditions
12:56 AM 45.0 °F 40.6 °F 41.9 °F 89% 30.10 in 10.0 mi North 8.1 mph - N/A   Overcast
1:56 AM 45.0 °F 39.7 °F 41.9 °F 89% 30.10 in 10.0 mi North 10.4 mph - N/A   Overcast
2:56 AM 43.9 °F 37.9 °F 41.9 °F 93% 30.09 in 3.0 mi North 11.5 mph - 0.01 in Rain Rain
3:10 AM 44.6 °F 38.4 °F 42.8 °F 93% 30.05 in 10.0 mi North 12.7 mph 18.4 mph 0.00 in Rain Light Rain
3:56 AM 43.0 °F 37.2 °F 41.9 °F 96% 30.09 in 5.0 mi North 10.4 mph 18.4 mph 0.00 in Rain Light Rain
4:08 AM 42.8 °F 38.0 °F 42.8 °F 100% 30.05 in 4.0 mi North 8.1 mph - 0.00 in Rain Light Rain
4:40 AM 42.8 °F 35.8 °F 42.8 °F 100% 30.06 in 9.0 mi North 13.8 mph - 0.00 in Rain Light Rain
4:56 AM 43.0 °F 37.2 °F 41.9 °F 96% 30.09 in 9.0 mi North 10.4 mph 17.3 mph 0.00 in   Overcast
5:56 AM 43.0 °F 37.2 °F 41.0 °F 93% 30.08 in 10.0 mi North 10.4 mph - N/A   Overcast
6:56 AM 43.0 °F 36.8 °F 41.0 °F 93% 30.09 in 10.0 mi North 11.5 mph 18.4 mph N/A   Overcast
7:56 AM 41.9 °F 35.4 °F 41.0 °F 97% 30.10 in 6.0 mi North 11.5 mph - N/A   Overcast
8:56 AM 43.9 °F 37.9 °F 41.0 °F 90% 30.11 in 5.0 mi North 11.5 mph 16.1 mph N/A   Overcast
9:56 AM 43.9 °F 38.8 °F 41.0 °F 90% 30.11 in 6.0 mi North 9.2 mph - N/A   Overcast
10:56 AM 45.9 °F 40.8 °F 41.9 °F 86% 30.10 in 10.0 mi North 10.4 mph - N/A   Overcast
11:03 AM 46.4 °F 42.9 °F 42.8 °F 87% 30.07 in 10.0 mi North 6.9 mph - N/A   Overcast
12:56 PM 46.9 °F - 41.9 °F 83% 30.08 in 10.0 mi North 9.2 mph - N/A   Overcast
1:38 PM 48.2 °F - 41.0 °F 76% 30.03 in 10.0 mi North 12.7 mph 19.6 mph N/A   Overcast
1:56 PM 47.8 °F - 41.9 °F 80% 30.05 in 10.0 mi North 10.4 mph - 0.01 in   Overcast
2:56 PM 47.8 °F - 41.9 °F 80% 30.05 in 10.0 mi North 11.5 mph 19.6 mph N/A   Overcast
3:56 PM 47.8 °F - 41.9 °F 80% 30.04 in 10.0 mi North 11.5 mph - N/A   Overcast
4:56 PM 47.8 °F - 41.9 °F 80% 30.04 in 10.0 mi North 12.7 mph - N/A   Overcast
5:56 PM 47.8 °F - 41.9 °F 80% 30.05 in 10.0 mi North 11.5 mph - N/A   Overcast
6:56 PM 47.8 °F - 41.9 °F 80% 30.07 in 10.0 mi North 12.7 mph 20.7 mph N/A   Overcast
7:56 PM 46.9 °F - 41.9 °F 83% 30.06 in 10.0 mi North 11.5 mph 17.3 mph N/A   Overcast
8:56 PM 47.8 °F - 41.9 °F 80% 30.06 in 10.0 mi North 10.4 mph - N/A   Overcast
9:56 PM 47.8 °F - 41.0 °F 77% 30.05 in 10.0 mi North 10.4 mph 17.3 mph N/A   Overcast
10:56 PM 47.8 °F - 39.9 °F 74% 30.04 in 10.0 mi North 9.2 mph - N/A   Overcast
11:56 PM 47.8 °F - 37.9 °F 69% 30.03 in 10.0 mi North 12.7 mph 17.3 mph N/A   Overcast